Lapse_Rate
6.0 5.9 5.7 5.6 5.4 5.0 4.8 4.7 4.8 4.9 5.0 4.7 4.7 4.4 4.1 3.6 3.5 3.3 3.1 3.0 3.3 4.1 4.8 5.6 5.9 5.7 5.9 6.6 7.1 7.5 7.1 6.8 6.9 6.8 7.2 7.2 7.0 6.8 6.4 6.3 6.2 6.5 6.0 6.1 6.4 6.6 6.5
5.8 6.2 6.0 5.9 5.6 5.4 5.0 4.4 4.8 4.9 4.8 4.9 4.7 4.6 4.1 3.6 3.5 3.3 3.2 3.0 3.5 4.1 4.9 5.8 5.9 5.7 6.1 6.7 7.4 7.5 7.2 7.0 6.4 6.7 6.9 6.9 6.6 6.9 6.4 6.4 6.5 6.6 6.2 6.6 6.0 6.6 6.4
6.1 6.2 6.0 6.0 6.0 5.8 5.1 4.6 4.7 5.0 5.0 4.9 4.8 4.7 4.1 3.6 3.4 3.3 3.1 3.1 3.4 4.3 5.2 6.0 5.8 5.8 6.1 7.0 7.3 7.7 7.3 6.8 7.0 7.0 6.9 6.9 6.5 6.5 6.6 6.5 6.5 6.8 6.5 6.6 6.2 6.5 6.2
5.6 6.1 6.2 6.0 6.2 6.0 5.5 4.8 4.9 5.0 4.9 4.8 4.9 4.9 4.1 3.6 3.5 3.3 3.0 3.1 3.6 4.3 5.2 5.9 5.7 6.0 6.5 7.0 7.4 7.7 7.3 7.2 7.1 7.1 7.0 6.4 6.6 6.3 6.6 6.5 6.8 6.4 6.6 6.3 6.1 6.0 6.1
5.5 5.7 5.9 6.1 6.1 6.1 5.8 5.2 5.2 5.2 4.9 4.8 4.9 4.9 4.3 3.7 3.5 3.2 3.1 3.1 3.6 4.5 5.3 5.9 5.7 6.2 6.7 7.0 7.5 7.7 7.3 7.2 7.2 7.2 6.6 6.5 6.3 6.4 6.6 6.9 6.9 6.6 6.7 6.5 6.4 6.4 5.9
5.4 5.7 5.7 5.9 6.0 6.0 6.0 5.4 5.3 5.2 4.9 4.9 4.8 4.9 4.4 3.8 3.5 3.2 3.1 3.1 3.7 4.5 5.4 5.7 5.8 6.3 6.5 7.1 7.4 7.5 7.4 7.5 7.1 6.4 6.7 6.3 6.4 6.5 6.6 6.6 6.8 6.6 6.9 6.6 6.4 6.2 5.5
5.5 5.6 5.9 6.1 6.0 6.0 5.8 5.3 5.5 5.1 4.9 5.0 4.9 4.9 4.4 4.0 3.5 3.2 2.9 3.2 3.7 4.4 5.5 5.8 5.8 6.3 6.8 7.1 7.3 7.7 7.4 7.3 6.7 6.5 6.8 6.1 6.1 6.1 6.6 7.0 6.7 6.9 7.1 6.5 6.6 6.3 6.0
5.6 5.3 5.6 6.0 6.3 5.8 5.5 5.3 5.4 5.3 5.1 5.2 5.0 4.9 4.5 4.0 3.5 3.2 3.0 3.3 4.2 4.8 5.5 5.8 5.7 6.9 7.1 7.0 7.2 7.7 7.3 6.7 6.5 6.4 6.2 6.3 6.2 6.3 6.5 6.8 6.8 7.0 7.2 6.9 6.6 6.6 6.6
5.7 5.3 5.3 5.9 6.0 6.1 6.0 5.7 5.4 5.3 5.3 5.3 5.1 4.9 4.5 4.0 3.4 3.2 3.1 3.3 4.2 4.8 4.9 5.3 5.9 6.6 7.0 7.1 7.1 7.2 6.8 6.6 6.5 6.5 6.8 6.5 6.5 6.4 6.6 6.8 6.5 6.8 6.9 7.0 6.7 6.3 6.3
5.1 5.5 5.4 5.6 6.1 5.8 5.7 5.7 5.6 5.4 5.4 5.4 5.1 4.8 4.4 4.0 3.4 3.1 3.2 3.5 4.3 4.8 4.6 5.3 5.6 6.5 7.0 6.9 7.1 6.6 6.4 6.6 6.5 6.4 6.6 6.2 6.4 6.4 6.6 6.9 7.0 6.8 7.0 7.3 7.1 6.7 6.2
4.9 5.1 4.9 5.6 5.8 6.0 5.5 5.7 5.4 5.4 5.5 5.5 5.1 4.8 4.5 3.9 3.4 3.2 3.2 3.6 4.1 4.7 3.2 5.8 6.0 6.9 6.8 6.8 6.6 6.4 6.2 6.4 6.4 6.3 6.2 6.3 6.4 6.8 6.8 6.8 6.7 7.1 6.8 6.9 6.2 6.4 6.1
5.0 5.1 5.1 5.6 6.0 5.6 5.3 5.6 5.4 5.3 5.7 5.5 5.1 4.7 4.5 3.8 3.4 3.3 3.2 3.5 3.8 4.8 4.4 6.0 6.3 6.6 6.7 6.8 6.4 6.7 6.5 6.4 6.5 6.2 6.3 6.4 6.6 6.7 6.4 6.6 6.7 6.8 6.6 6.9 6.5 6.9 6.5
4.3 4.9 5.2 5.5 5.9 5.4 5.1 5.4 5.3 5.2 5.7 5.4 5.0 4.5 4.5 3.8 3.4 3.3 3.3 3.5 3.9 4.4 4.9 6.0 6.2 6.3 6.6 6.6 6.7 6.9 6.6 6.4 6.6 6.7 6.1 6.1 6.4 6.3 6.6 6.7 6.4 6.4 6.9 6.0 6.3 6.1 6.0
4.8 4.9 5.2 5.7 5.6 5.1 5.2 5.4 5.2 5.2 5.7 5.4 4.9 4.5 4.3 3.9 3.4 3.3 3.3 3.4 3.6 4.4 5.3 5.7 6.5 6.5 6.8 6.5 6.7 6.8 6.5 6.5 6.5 6.8 6.5 6.4 6.7 6.7 6.9 6.8 6.5 6.6 7.2 7.0 6.0 5.4 5.9
4.9 5.2 5.4 5.6 5.1 5.1 5.1 5.5 5.3 5.4 5.7 5.4 4.6 4.5 4.2 3.7 3.4 3.4 3.3 3.4 3.6 4.4 5.2 5.6 6.4 6.6 6.5 6.5 6.4 6.4 6.7 6.4 6.3 6.5 6.4 6.1 5.8 6.4 6.6 6.7 7.1 7.1 6.9 7.0 7.1 7.1 6.8
5.6 5.1 5.2 5.4 5.2 5.1 5.6 5.6 5.3 5.6 5.6 5.4 4.5 4.5 4.0 3.7 3.4 3.3 3.3 3.7 3.6 4.3 4.9 5.4 5.5 6.3 6.9 6.5 6.4 6.4 6.4 6.6 6.5 6.4 6.4 6.2 6.0 5.9 6.7 6.7 6.8 6.9 6.8 7.0 7.4 6.5 7.3
5.4 5.0 5.4 5.4 5.3 5.1 5.3 5.5 5.2 5.7 5.5 5.3 4.5 4.6 4.0 3.7 3.4 3.3 3.5 3.5 3.4 3.8 4.9 4.9 5.8 5.9 6.4 6.5 6.3 6.2 6.1 6.3 6.5 6.5 6.4 6.3 6.4 6.0 6.5 6.8 7.0 7.1 7.2 7.4 7.3 7.4 6.5
5.4 4.8 5.3 5.4 5.3 5.2 5.3 5.4 5.2 5.7 5.4 5.1 4.5 4.5 3.9 3.6 3.3 3.5 3.2 3.3 3.3 3.5 4.2 5.0 5.6 5.9 6.0 6.5 6.4 6.4 6.3 6.2 6.3 6.4 6.5 6.6 6.4 5.9 6.3 6.5 6.7 7.1 7.2 7.3 7.5 7.4 7.1
5.4 5.0 5.3 5.2 5.0 5.4 5.5 5.3 5.4 5.6 5.5 5.0 4.6 4.3 3.9 3.5 3.4 3.6 3.1 3.0 3.2 3.6 3.8 4.4 5.3 5.8 6.0 6.1 6.1 6.2 6.0 6.2 6.2 6.2 6.4 6.5 6.4 5.9 5.8 6.3 6.7 6.8 7.0 7.1 7.0 7.1 7.1
5.0 5.7 5.4 5.0 5.1 5.4 5.4 5.1 5.4 5.5 5.6 5.0 4.6 4.2 3.9 3.5 3.3 3.6 3.2 2.9 3.2 3.4 3.9 4.5 4.9 5.6 5.9 6.0 6.1 6.0 6.0 6.2 6.1 6.0 6.1 6.1 6.3 6.4 6.3 6.6 6.7 6.6 7.2 7.1 6.8 6.9 7.2
5.2 5.2 5.3 4.9 5.4 5.2 5.3 5.3 5.4 5.6 5.6 5.1 4.7 4.4 4.2 4.0 3.4 3.7 3.2 3.0 3.0 3.1 3.5 3.9 4.5 5.2 5.6 5.9 6.0 6.0 5.9 6.1 5.9 6.0 6.0 6.3 6.6 6.5 6.3 6.5 6.7 6.8 7.0 7.0 6.7 7.3 6.6
4.7 4.9 5.1 5.1 5.2 5.2 5.2 4.7 4.7 5.6 5.6 5.2 5.1 4.4 4.1 4.0 3.4 3.2 3.2 3.0 3.1 3.0 3.3 3.8 4.1 4.5 5.1 5.6 5.9 5.9 6.1 6.2 5.8 5.9 6.1 6.2 6.3 6.5 6.7 6.6 6.5 6.5 6.8 6.9 7.0 7.1 6.6
4.6 4.6 5.0 5.2 5.0 5.0 5.3 4.8 4.7 5.7 5.3 5.4 5.1 4.5 4.1 3.9 3.5 3.2 3.5 3.0 2.8 2.9 3.1 3.3 3.7 3.9 4.4 5.0 5.4 5.8 6.1 6.2 6.1 6.0 6.1 6.1 6.1 6.1 6.3 6.4 6.4 6.8 7.5 7.3 7.4 7.4 7.2
4.4 4.4 4.8 5.1 5.3 5.0 5.2 4.9 5.3 5.4 5.3 5.1 4.8 4.5 4.3 4.2 3.6 3.6 3.2 2.9 2.6 3.1 3.2 3.5 3.4 3.7 4.0 4.3 5.0 5.6 5.9 6.0 6.1 6.2 6.2 6.2 6.3 6.1 6.2 6.3 4.9 6.9 7.1 7.2 7.2 7.3 7.3
4.3 3.9 5.1 4.9 5.0 4.8 5.1 5.1 5.5 5.3 5.2 4.8 4.7 4.7 4.4 4.2 4.0 3.6 3.1 3.2 3.1 3.1 3.2 3.3 3.4 3.4 3.6 3.8 4.3 4.6 5.5 6.0 6.2 6.2 6.2 6.5 6.4 6.4 6.4 6.3 6.6 7.1 7.1 7.2 7.0 7.3 7.0
3.5 4.2 5.3 5.3 4.8 4.7 5.2 4.7 5.3 5.6 5.0 4.7 4.7 4.5 4.3 4.2 4.1 3.8 3.4 3.4 3.2 3.1 3.2 3.3 3.3 3.3 3.3 3.5 3.8 4.2 5.0 5.7 5.7 5.9 6.3 6.5 6.4 6.3 6.4 6.2 6.1 7.0 7.1 7.0 6.8 6.9 7.2
3.9 4.3 5.3 5.2 4.5 4.4 5.2 4.8 4.6 5.2 4.7 4.9 4.8 4.5 4.2 4.1 4.2 4.4 4.2 4.0 3.8 3.4 3.3 3.3 3.3 3.3 3.3 3.4 3.7 4.0 4.3 5.0 5.6 5.8 6.3 6.3 6.2 6.3 6.4 6.3 6.5 7.1 7.2 7.2 7.0 6.9 6.8
4.4 4.7 5.2 4.9 4.5 4.6 5.1 5.2 4.9 5.0 4.9 5.2 4.8 4.4 4.3 4.0 4.2 4.4 4.2 4.1 4.1 4.0 4.1 3.8 3.3 3.3 3.4 3.4 3.6 4.0 4.2 4.6 5.0 5.5 5.8 6.3 6.5 6.7 6.6 6.5 6.4 7.0 7.0 6.9 6.9 6.9 6.8
5.1 5.2 5.1 4.9 4.6 4.5 5.0 5.0 4.8 5.1 4.8 5.0 5.0 4.7 4.7 4.2 4.2 4.2 4.3 4.2 4.3 3.9 3.7 3.7 3.9 3.7 3.5 3.6 3.8 4.1 4.3 4.7 5.0 5.5 5.9 6.0 6.2 6.4 6.7 6.9 6.7 6.6 6.7 6.5 6.8 6.7 6.8
Wind_Speed
22 20 18 17 14 14 14 13 13 13 13 13 15 16 13 12 11 10 11 14 12 9 8 8 8 8 4 2 4 3 7 9 6 8 12 8 13 7 10 10 7 11 8 12 6 7 1
29 23 21 19 16 16 14 13 13 13 13 14 14 15 15 12 10 9 10 13 12 11 7 7 7 8 1 3 1 4 7 1 6 5 6 7 7 7 8 6 12 12 13 13 11 7 1
28 29 24 22 20 17 14 14 13 13 14 13 13 14 14 12 11 10 10 12 12 11 7 7 6 4 4 9 4 7 7 2 2 2 2 4 7 4 5 8 8 8 12 4 10 9 4
29 27 29 23 23 18 15 14 14 13 13 13 13 12 14 10 11 9 13 12 11 11 9 8 7 3 5 2 5 5 4 5 5 5 5 3 7 2 4 7 4 13 7 10 8 11 2
30 28 26 23 20 19 17 15 14 13 13 12 11 13 12 10 9 11 12 12 12 9 7 5 3 4 4 1 2 4 4 3 4 4 3 7 0 2 4 2 5 7 9 5 9 14 6
34 30 26 23 19 21 18 16 14 13 12 10 10 11 10 7 10 11 11 9 8 6 5 5 5 4 5 1 2 4 3 1 2 2 2 6 3 3 3 1 10 9 8 6 7 11 11
37 35 26 23 21 23 19 15 14 12 11 9 9 10 8 9 10 11 6 2 2 2 3 1 3 4 4 5 5 3 4 4 3 2 2 3 3 6 8 5 10 7 13 16 5 11 11
41 34 28 21 19 22 19 18 15 13 9 8 7 8 8 8 9 3 0 2 3 2 1 2 3 5 1 2 3 7 10 3 1 2 3 4 2 4 5 11 9 13 10 8 6 15 8
38 38 33 20 16 24 21 19 16 12 9 7 5 6 5 8 3 1 3 3 1 3 1 1 2 3 1 3 4 6 8 7 3 3 2 3 4 4 8 5 7 2 8 5 9 6 6
36 43 31 23 16 24 22 20 16 12 8 6 4 4 5 4 0 3 2 3 1 2 3 5 2 1 1 10 3 3 3 2 2 3 3 3 5 6 6 3 5 6 9 11 7 7 2
36 40 30 26 17 25 23 20 17 13 9 6 4 3 6 7 3 1 3 3 1 3 5 5 4 3 2 3 1 5 2 4 7 5 4 6 9 8 9 2 6 2 15 17 11 5 7
37 39 30 26 20 26 26 22 18 14 9 6 4 4 6 1 2 0 5 2 3 4 2 5 3 4 3 4 2 3 2 2 3 4 9 7 4 4 2 4 6 5 5 9 4 2 2
36 36 26 25 23 27 25 23 19 14 10 6 5 7 8 4 3 4 2 2 3 6 4 2 3 4 4 4 3 4 1 2 1 5 6 1 3 4 1 4 9 3 4 2 3 3 4
48 42 31 27 29 30 29 25 20 16 12 7 10 12 2 3 4 2 2 3 7 3 2 2 3 3 3 4 1 5 3 2 3 4 4 5 6 8 8 4 4 7 2 4 5 3 3
39 32 31 29 30 32 30 26 22 19 15 13 15 2 3 1 3 3 2 4 6 5 5 6 2 1 1 2 2 1 2 2 1 2 4 4 3 5 3 3 3 4 3 4 4 3 4
26 22 28 24 32 32 30 28 25 22 19 21 3 3 2 2 2 3 3 3 2 5 6 3 2 5 1 2 1 1 2 3 2 3 4 3 4 4 4 4 2 2 3 4 3 2 3
36 25 29 31 35 34 31 28 26 24 22 21 3 3 0 1 2 1 2 4 3 3 3 3 2 3 3 3 3 1 2 3 2 2 2 2 4 2 2 2 2 4 3 2 2 4 3
30 26 36 31 34 33 32 29 28 26 24 11 4 3 1 0 2 1 1 4 3 5 2 1 2 3 5 4 2 1 3 2 2 1 2 2 4 3 1 2 1 0 1 1 3 3 1
31 27 24 32 34 33 32 30 30 30 26 5 4 3 1 0 3 3 3 3 1 5 5 4 3 0 3 1 3 3 5 3 1 3 2 2 1 3 3 5 3 3 4 3 2 3 2
32 25 16 31 33 34 32 31 30 30 27 4 4 4 2 2 2 2 5 4 3 1 3 1 2 2 1 1 2 3 3 2 3 1 2 2 2 5 5 4 4 4 5 5 4 3 4
34 26 28 27 33 34 32 30 28 29 28 3 2 4 5 5 4 5 2 7 5 4 1 3 1 1 0 3 3 4 4 2 1 2 4 3 2 4 2 3 3 2 3 6 6 7 5
31 17 16 10 35 35 31 30 27 25 20 2 4 4 3 4 4 7 3 5 7 3 4 4 2 2 5 4 2 3 4 3 3 0 1 2 3 4 4 4 4 3 6 7 7 6 8
29 21 31 18 30 35 31 28 26 26 12 3 1 2 4 1 5 5 4 5 8 7 3 3 3 4 5 3 2 2 3 0 3 6 2 3 3 2 4 3 4 6 7 9 4 6 6
21 19 23 27 31 30 28 28 27 28 9 3 3 3 3 3 3 5 5 4 7 4 4 3 6 3 1 2 2 2 1 2 3 5 3 3 5 4 3 2 0 6 0 1 7 7 8
22 16 24 14 29 29 27 26 25 29 13 2 2 3 3 4 4 4 7 7 7 4 3 4 3 2 1 2 3 3 3 2 0 3 4 2 2 1 2 2 6 2 2 1 2 5 4
22 16 18 20 28 26 26 24 24 27 18 3 2 2 2 6 1 3 5 5 4 3 2 3 2 0 2 2 2 3 4 4 2 1 3 1 5 3 2 1 3 2 3 1 2 4 4
25 9 20 31 29 26 24 21 21 23 19 4 2 2 4 4 3 3 4 4 3 3 4 3 3 2 2 2 2 2 1 2 3 5 4 1 1 4 2 2 6 5 2 2 1 5 3
21 31 19 30 30 26 22 17 19 23 18 4 1 1 3 3 4 5 4 3 3 3 4 2 3 2 2 2 2 2 2 3 1 2 4 5 4 3 2 2 5 3 2 1 4 3 4
21 12 32 30 30 27 25 23 21 23 17 8 3 2 4 5 3 4 5 5 5 2 4 2 3 2 1 3 2 2 1 2 2 2 4 0 5 3 6 4 4 4 6 3 3 6 6
Wind_Direction
267 263 256 254 260 265 274 282 289 294 302 307 317 320 323 323 323 331 332 323 313 311 319 333 350 347 348 287 246 131 320 315 300 307 224 212 209 247 211 203 200 205 181 211 168 112 121
279 265 257 253 243 254 264 274 281 288 296 303 313 317 326 318 329 318 333 316 316 317 301 315 333 343 236 274 254 351 292 353 359 311 215 180 221 262 286 211 206 176 199 200 175 136 67
275 277 265 251 237 243 248 265 272 280 288 297 309 315 321 323 322 318 330 313 316 319 295 299 316 322 268 250 328 315 360 84 18 32 36 293 226 249 316 198 208 203 192 193 150 191 188
275 275 275 264 236 229 231 250 261 272 280 294 305 311 312 322 323 326 325 305 305 298 282 285 300 333 259 252 308 3 339 124 101 89 123 305 234 294 242 302 218 179 204 179 156 149 132
275 273 274 279 234 224 223 234 252 261 276 287 306 309 312 328 316 326 309 305 303 292 257 272 297 175 279 334 355 345 339 1 122 116 63 325 163 327 273 285 135 166 154 158 133 141 111
300 273 274 274 261 219 217 226 241 253 268 286 299 304 314 324 324 313 297 300 300 300 269 248 245 304 276 360 347 302 293 198 80 148 16 11 53 29 319 193 169 155 144 206 139 172 146
307 291 267 271 277 216 214 220 232 243 259 278 292 301 316 322 319 305 310 352 28 347 256 350 348 298 343 335 284 112 346 281 137 0 51 275 118 186 216 269 291 113 153 176 132 160 155
311 301 268 266 272 212 203 214 222 234 246 267 288 304 326 318 308 337 305 251 91 176 117 163 255 265 184 360 302 21 357 329 139 23 347 202 114 173 197 239 253 154 143 156 138 154 154
304 294 287 250 271 215 200 205 215 223 233 256 281 303 313 308 301 350 222 301 23 12 171 57 20 315 18 353 4 324 349 318 59 343 209 101 88 223 186 211 182 122 165 138 160 113 343
302 298 288 247 253 209 199 198 207 214 218 234 258 282 296 297 324 205 219 138 34 42 85 347 254 38 279 88 331 306 319 314 10 321 49 67 37 114 121 100 125 160 148 115 152 135 160
297 291 282 248 237 199 197 193 198 205 203 223 232 251 258 221 315 256 134 148 266 65 48 342 316 171 285 47 281 334 310 305 9 12 348 58 36 55 78 107 212 159 149 140 191 145 152
293 287 286 235 220 195 189 190 189 193 193 205 201 234 212 155 220 101 147 255 55 53 41 324 276 279 99 50 84 277 258 235 292 41 56 52 27 44 256 285 88 66 91 130 135 153 59
297 291 281 235 205 182 184 187 180 182 183 188 208 194 174 228 161 168 119 55 82 82 257 334 298 335 118 176 178 227 269 32 9 55 22 164 129 293 10 62 81 78 68 91 33 30 191
298 284 281 261 182 181 179 181 176 173 170 169 168 159 203 85 69 61 71 66 70 105 94 265 251 307 36 348 330 211 183 90 23 59 57 53 5 2 342 19 99 216 70 132 152 166 231
282 289 289 244 176 174 174 176 171 165 160 158 144 178 127 332 49 65 101 65 177 182 178 173 270 188 240 243 218 296 134 114 87 13 104 111 24 310 25 322 6 316 64 190 107 49 75
306 294 280 204 167 170 170 172 167 163 160 158 145 143 89 148 91 78 87 119 163 169 134 196 197 195 93 265 338 338 91 1 79 25 43 131 97 337 341 334 45 92 250 40 13 103 167
295 293 302 183 167 166 169 170 166 164 163 171 115 126 233 26 68 94 170 163 150 220 90 219 357 168 151 208 215 299 55 358 41 325 346 352 94 303 13 349 35 15 31 13 130 137 154
307 313 309 164 163 164 164 168 168 164 157 156 142 108 277 66 132 161 217 170 122 148 130 297 254 258 174 181 213 299 103 82 203 184 352 21 112 128 175 216 204 234 277 113 119 272 26
317 332 287 166 163 159 162 171 169 163 160 139 118 109 352 62 165 223 197 105 188 159 174 199 230 180 18 298 134 78 58 27 168 359 37 342 95 78 22 358 310 218 223 218 112 60 219
322 327 303 167 160 159 164 172 170 168 177 127 120 126 133 205 255 234 154 157 139 179 127 137 318 34 1 123 76 121 114 178 236 7 359 49 87 138 173 205 152 200 207 200 141 120 223
326 329 315 171 161 158 167 170 172 174 187 87 143 172 166 174 229 233 159 159 141 163 243 185 266 242 205 135 127 101 86 96 309 331 359 45 48 68 308 310 81 262 234 211 185 216 175
324 318 329 224 163 163 169 170 173 171 160 113 136 133 110 191 151 162 266 166 152 131 142 183 143 130 36 84 51 107 133 171 189 252 17 25 3 58 321 271 219 273 271 262 253 253 242
320 328 327 263 176 163 168 169 169 165 149 156 225 70 118 196 138 124 202 182 151 119 12 45 97 88 88 117 101 298 318 143 113 149 170 121 125 76 288 330 10 309 241 221 224 238 217
319 353 341 159 168 166 168 169 172 174 167 130 185 112 110 168 127 180 161 146 122 95 153 62 50 73 189 4 325 307 272 60 88 92 116 151 157 163 224 49 12 236 67 135 214 253 247
322 312 315 211 167 167 170 174 177 179 171 98 113 113 137 112 136 81 116 108 88 55 61 101 62 126 15 75 74 68 346 359 230 68 52 164 136 147 141 190 283 329 321 91 101 286 323
312 302 274 194 167 171 176 176 181 181 179 91 68 99 111 120 233 305 114 134 129 133 49 70 90 136 97 98 89 162 196 198 166 88 339 49 98 118 66 108 268 279 270 289 65 290 317
312 239 301 163 169 172 176 176 181 176 167 106 97 91 84 103 352 24 113 153 109 125 134 121 160 91 54 93 151 143 211 149 174 182 203 45 12 160 213 244 284 274 222 267 360 252 268
309 302 215 168 164 165 166 168 170 163 150 109 116 238 106 94 10 34 48 79 57 63 133 219 83 357 64 115 139 221 156 237 64 190 177 166 148 203 131 175 283 204 312 186 232 283 311
332 166 149 157 157 157 159 162 162 163 149 121 98 334 81 82 113 90 90 72 74 56 129 45 126 80 91 116 68 91 48 26 153 251 342 263 181 186 174 212 246 240 224 265 256 259 273